Погода в Плаценсии

Белиз     16°31′08″N   88°22′09″W
темп.,
°C
ветер,
м/с
пор.,
м/с
влажн.,
%
обл.,
%
осадки,
мм/ч
давл.,
гПа
погр.,
м
12 мая, ср
ср1200:00+28в11127931 2.7 10121075
03:00+28в10117975 0.1 10111100
06:00+28в997784 0.3 10121054
09:00+28в887775 0.1 10141002
12:00+29всв887633 0.1 10131021
15:00+28всв887613 0.1 10111017
18:00+29всв89753 0.3 1012952
21:00+29всв897427 0.0 10131088
13 мая, чт
чт1300:00+28всв8874100 0.1 10131105
03:00+28всв8979100 0.2 1012806
06:00+28всв997273 0.4 10131235
09:00+28всв9107552 0.1 10151271
12:00+28всв89786 0.9 1014864
15:00+28св89775 0.6 1013948
18:00+28св997743 1.1 10141043
21:00+28всв9974100 2.0 10151193
14 мая, пт
пт1400:00+28всв777527 2.3 1015939
03:00+28всв777425 0.2 1013991
06:00+28всв7774100 1.9 1014948
09:00+28всв777497 0.9 1016959
12:00+27св677897 3.9 1015679
15:00+28св777599 1.4 1014881
18:00+28св787569 1.8 1014949
21:00+28всв787526 1.6 1016960
15 мая, сб
сб1500:00+28вюв677799 3.7 1015832
03:00+28всв667699 4.2 1014822
06:00+27всв6677100 8.6 1015773
09:00+28всв567720 2.8 1016783
12:00+27всв667726 5.0 1015822
15:00+28св777717 0.6 1013909
18:00+28св787616 0.8 1014960
21:00+28в66721 0.1 10141038
16 мая, вс
вс1600:00+28в55715 0.1 10141040
03:00+28в557146 0.0 1013994
06:00+28в5571100 0.0 10141034
09:00+28всв556929 0.1 10151033
12:00+28всв557019 0.1 1015952
15:00+28всв66725 0.0 1013914
18:00+28св66745 0.0 1013835
21:00+28всв787563 0.2 10141044